DECAYED
Showing default

LEMUR 2 DAISY-HARPER, 43889 (Decayed)

Orbit data source: Space-Track

LEMUR 2 DAISY-HARPER, 43889 was a payload satellite owned by Spire/Lux (US) in LEO that was launched on Thu, 27 Dec 2018 UTC via a SOYUZ-2-1A launch vehicle from the Vostochny Cosmodrome (VOSTO). Payload-class satellites include a variety of spacecraft equipped with specific instruments for various scientific and technological missions. These include communications satellites like Starlink; space stations such as the ISS; scientific satellites like the Hubble; Earth observation satellites from companies like Planet Labs, Umbra, and HawkEye 360; GPS; miniature CubeSats for education and research; and military/defense satellites.

Not visible in the next 10 days
Identifier
43889, 2018-111P
Orbit
Decayed
Country
Flag of USUS
Related business
Manufacturer
Spire/Glasgow
Mission
Decayed Commercial Com/MetRO
Bus & Motor
CUBESAT 3U, Unknown motor
Mass
4.6 kg wet, 4.6 kg dry
Launch date (UTC)
2018-12-27 (7 years ago)
Launch vehicle
SOYUZ-2-1A
Launch site
Vostochny Cosmodrome (VOSTO)
Object type
Payload
Rocket body
Debris
Shape & HBR
Box + 2 Pan, 0.3 m
Radar Cross Section
0.124 m², Small (<0.1 m²)

Expand to show TLE details & history
Last TLE update: 7 months ago

TLE from 7 months ago
0 LEMUR 2 DAISY-HARPER
1 43889U 18111P   25051.58319382  .10905118  26878-5  17499-2 0  9999
2 43889  97.5738 346.4333 0007864 144.5778 215.6041 16.33665975338206
Epoch: 2025-02-20T13:59Z
TLE epoch observation values (Epoch: 2025-02-20T13:59:47.946Z)
Latitude
-0.00002°
Longitude
-14.27323°
Altitude
190.141 km
Speed
7.79 km/s
True Right ascension
23h 05m 43s
True Declination
0° 00' 00"
Sunlit
Object was in daylight at epoch
Visualization orbit readout
Latitude
Unknown
Longitude
Unknown
Altitude
Unknown
Speed
Unknown
Apparent Right ascension
Unknown
Apparent Declination
Unknown
Sunlit
N/A
Visualization observer readout
Local Sidereal Time
06:28:14
Azimuth
Unknown
Elevation
Unknown
Doppler factor
Unknown
Orbital elements
Apogee altitude
184.687 km
Perigee altitude
174.373 km
Semi-major axis
6,557.667 km
Eccentricity
0.00079
Inclination
97.5738°
RAAN
346.4333°
Arg. of periapsis
144.5778°
True anomaly
215.55168°
Mean anomaly
215.6041°
Eccentric anomaly
215.57789°
Mean motion
4.08714 °/min
Orbital period
88.08 mins
BSTAR
0.0017499
Loading maneuver chart data...
Computing Atmospheric mass density...
Loading historical data...
Loading historical data...
Loading historical data...
Loading historical data...
Loading historical data...
Loading historical data...
Loading historical data...

Documentation

Showing up to 5 results
|